Theta_e
294 295 295 294 294 292 291 292 289 292 294 299 300 302 302 303 303 303 305 306 306 305 305 305 305 306 306 307 307 308 306 306 308 311 311 309 307 307 307 307 305 304 303 302
291 295 294 293 294 294 294 294 293 294 293 300 301 300 299 301 303 302 302 306 306 307 307 305 306 307 307 307 308 308 306 306 309 310 309 307 307 307 307 306 305 304 303 302
287 292 293 289 293 294 294 296 294 290 295 299 298 300 299 300 302 303 303 303 306 307 309 308 307 309 308 308 307 306 306 307 308 308 307 307 307 307 305 304 305 304 304 304
287 289 282 292 296 297 296 297 298 297 298 300 301 303 302 303 303 303 304 304 304 307 308 309 308 307 308 308 307 307 306 307 307 306 305 306 306 306 305 305 305 305 304 304
286 286 291 294 296 294 294 294 299 298 299 301 301 299 301 304 304 304 304 306 307 307 309 308 309 307 309 308 307 306 306 306 306 305 306 306 305 304 306 305 304 304 304 303
288 283 282 292 298 301 299 291 300 301 301 301 299 294 299 303 304 305 306 306 307 306 306 308 309 308 306 307 308 307 307 307 306 307 306 306 305 305 306 305 304 305 304 303
288 287 291 298 298 299 289 292 300 302 301 300 298 301 302 304 303 303 304 305 306 307 306 306 308 307 306 306 307 308 307 307 307 307 306 305 305 305 304 304 303 302 302 302
288 285 284 300 297 294 298 300 301 302 302 301 302 303 304 305 304 304 305 306 305 304 305 306 307 308 306 304 306 307 307 308 307 306 306 306 304 303 304 302 301 300 300 300
291 291 299 300 299 301 302 302 301 301 303 303 303 303 304 304 305 304 304 304 305 304 305 305 306 305 304 304 306 308 307 306 305 306 306 305 303 302 302 302 300 299 299 298
293 297 299 300 302 303 304 302 303 303 305 305 303 304 305 305 304 303 303 303 303 303 304 303 304 305 304 306 308 307 305 305 305 304 304 303 303 302 300 299 298 299 298 298
295 297 298 300 301 303 304 304 304 304 304 305 305 305 305 304 304 304 303 303 303 303 303 303 304 304 307 308 307 305 305 305 304 304 302 301 301 301 301 300 300 298 297 297
294 298 299 299 302 303 302 303 304 303 303 304 305 304 305 305 305 304 303 303 302 303 304 304 305 307 307 307 306 305 304 303 302 301 300 300 299 299 303 303 301 300 300 297
300 303 302 301 302 302 302 302 304 304 304 303 304 304 304 304 305 306 304 304 303 303 305 306 306 306 306 306 305 304 302 301 299 299 299 298 298 297 295 298 301 300 300 301
304 303 301 303 301 302 302 303 304 303 304 304 304 304 304 304 304 305 304 305 304 305 308 307 306 305 305 305 303 301 299 301 298 297 297 297 297 296 295 295 294 295 298 299
302 303 303 304 304 304 304 304 302 302 302 301 302 303 303 303 303 304 304 304 305 306 307 307 305 304 303 302 300 298 297 296 296 296 296 297 296 295 295 294 293 293 294 297
301 302 302 301 302 303 304 303 301 302 302 302 303 302 303 303 303 303 304 304 304 306 306 305 304 301 300 298 297 297 297 298 297 296 296 295 294 294 293 293 293 292 292 292
298 297 300 300 301 302 302 304 304 303 302 302 301 302 303 302 302 302 303 303 305 305 305 304 300 299 299 297 297 296 296 295 297 294 294 295 294 293 293 292 292 292 293 295
302 302 302 302 302 302 303 304 305 305 304 304 302 302 301 301 301 301 302 303 302 300 300 299 298 297 297 297 297 296 295 295 294 293 294 294 292 293 292 292 292 292 292 294
300 300 302 302 303 303 304 304 305 305 306 306 304 303 302 302 301 301 302 300 298 296 295 296 297 296 296 297 297 296 295 294 294 293 293 295 292 292 291 292 292 292 292 291
299 301 302 302 303 303 303 305 305 305 305 302 303 302 300 300 301 301 301 297 296 296 295 295 295 295 294 296 298 295 294 294 293 293 293 293 292 291 291 293 292 291 291 291
299 300 301 301 302 303 304 304 304 304 304 304 301 300 300 300 299 297 295 292 293 295 294 296 295 295 294 294 295 294 294 294 294 293 293 291 291 292 292 292 292 292 291 290
296 296 296 296 299 302 303 303 303 303 301 301 301 300 297 295 295 294 294 293 293 296 295 294 294 295 295 297 295 294 294 294 293 292 291 292 292 291 291 291 291 292 291 290
293 294 296 296 296 298 299 299 299 299 299 299 297 296 295 294 294 291 289 293 294 295 293 293 296 297 298 296 295 294 293 293 292 292 292 292 292 291 291 291 291 291 291 290
292 294 295 297 297 295 292 293 294 293 293 293 293 293 292 290 291 293 294 294 294 293 292 293 295 297 296 294 293 293 292 292 291 292 292 294 291 291 291 292 292 292 292 292
291 292 292 292 291 291 290 290 289 288 288 288 288 290 291 291 290 290 290 291 291 290 290 292 293 292 290 290 289 289 289 289 289 288 288 289 289 289 289 289 290 290 290 290
288 288 289 290 290 290 289 288 286 287 286 285 286 287 288 289 289 288 289 289 289 289 288 288 288 288 288 288 288 288 288 288 287 287 288 287 287 286 287 287 287 288 288 288
286 287 285 285 287 287 287 286 285 285 286 285 284 286 286 287 287 287 287 286 286 287 287 287 287 288 287 287 287 287 287 287 288 286 286 286 287 286 286 287 286 287 287 287
Wind_Speed
14 18 7 8 8 15 17 19 12 8 17 16 10 7 8 8 5 8 10 10 10 10 9 10 10 10 9 9 9 9 9 9 9 8 7 6 5 5 4 4 5 5 5 5
17 14 13 15 13 14 18 22 19 21 26 16 15 10 6 7 10 10 9 11 12 10 10 11 13 11 11 11 11 11 9 9 8 8 8 7 6 5 5 4 5 5 6 6
11 10 11 17 24 21 18 19 15 24 23 16 12 12 9 9 9 11 13 10 13 16 16 13 13 13 13 13 9 10 10 9 9 8 8 8 6 5 5 5 4 5 5 5
3 3 11 8 2 9 25 23 24 24 13 17 16 20 10 9 10 12 10 13 12 12 12 12 9 10 10 10 11 11 10 9 8 9 8 7 6 6 4 4 4 4 5 5
5 9 15 23 6 5 7 14 21 23 20 28 17 11 16 8 9 8 9 10 13 12 13 11 12 10 13 12 11 11 12 10 9 9 9 8 7 6 5 3 3 3 3 5
3 7 11 1 8 11 7 18 11 17 23 24 8 10 12 11 7 9 13 10 7 9 8 11 12 10 12 12 13 16 14 12 9 9 8 8 7 7 4 3 3 3 4 5
16 15 10 9 4 5 8 7 2 7 15 11 9 11 6 5 3 1 2 6 7 6 9 10 10 10 12 11 16 13 9 9 9 8 8 8 6 4 4 4 2 2 5 6
13 16 27 6 5 18 7 1 2 5 4 3 4 3 6 7 4 5 7 6 6 5 8 7 9 13 12 13 9 9 10 11 8 8 6 6 7 4 4 3 3 4 5 5
14 11 18 13 6 7 11 17 6 2 2 3 3 3 4 4 7 7 8 6 4 6 6 5 7 8 10 9 9 10 11 9 8 7 7 7 6 5 3 4 3 4 3 3
7 20 15 8 10 11 9 13 12 6 6 5 6 5 7 6 7 7 5 5 4 6 6 6 6 6 5 8 9 11 9 8 7 7 7 5 4 4 4 3 3 4 3 3
18 20 10 12 9 8 9 8 9 7 5 8 8 8 7 5 7 7 7 5 5 7 6 7 6 6 7 8 10 9 8 7 7 6 6 5 4 4 4 4 4 3 2 1
13 8 13 12 11 12 11 10 10 10 9 7 9 9 8 7 7 6 7 6 6 7 7 7 8 7 7 8 8 8 7 6 5 5 5 4 4 2 5 7 8 5 4 4
16 14 12 10 8 8 8 6 10 11 10 10 9 9 9 8 7 8 8 9 9 9 8 9 8 8 8 8 8 8 7 7 5 5 4 4 3 4 3 2 4 5 6 6
24 22 19 19 11 10 10 10 8 8 8 8 9 8 8 9 7 8 9 11 8 8 8 9 9 8 7 7 7 7 7 9 5 5 4 4 4 3 3 3 3 2 7 8
24 20 19 19 16 15 12 14 15 14 10 9 7 9 7 9 9 11 8 7 8 8 8 9 9 8 8 8 8 8 6 5 5 4 4 4 3 3 2 2 3 3 1 4
24 29 25 26 24 22 19 18 16 17 15 13 15 9 10 9 8 8 8 8 10 12 10 9 9 9 9 8 8 6 6 9 6 5 4 4 3 3 3 3 3 3 3 3
23 25 25 26 24 22 22 20 19 15 10 12 10 9 9 9 8 7 8 9 9 9 10 11 10 9 9 8 8 5 5 5 8 4 4 4 4 4 3 3 3 3 4 4
24 27 27 25 23 20 20 22 21 24 21 17 9 8 8 9 10 10 8 7 7 7 8 10 12 10 8 9 8 6 5 5 4 4 3 3 3 3 3 3 3 3 3 2
32 30 30 25 23 23 22 23 21 20 22 21 18 19 12 10 9 8 9 9 10 10 6 9 15 12 9 8 7 5 5 5 5 3 4 5 4 3 3 4 3 4 4 3
24 22 22 27 25 24 24 24 25 24 20 10 15 14 10 8 9 9 11 10 7 5 9 11 9 9 9 9 10 5 5 5 5 4 4 4 4 3 3 4 4 4 4 4
22 23 23 23 21 23 21 21 19 20 17 17 12 9 10 8 9 12 11 7 4 11 12 10 7 7 6 8 6 5 5 5 5 5 3 3 3 3 3 4 4 4 4 4
6 5 6 7 10 15 15 14 14 13 10 10 8 9 12 11 11 10 7 10 7 14 8 7 6 10 9 11 5 5 4 4 4 4 3 1 1 1 3 3 4 4 4 4
8 8 11 12 11 11 5 4 4 7 7 6 9 11 11 8 9 11 11 6 9 13 8 7 12 14 13 6 5 4 4 3 2 2 2 2 0 1 3 3 3 4 4 4
8 8 10 11 6 5 10 7 13 13 14 14 13 11 13 12 10 9 13 16 18 14 10 9 12 14 11 4 5 4 3 3 2 2 2 3 2 2 3 4 4 4 6 7
4 8 9 9 11 9 12 12 15 14 16 15 14 12 12 7 9 9 10 10 18 13 10 16 15 13 5 4 4 3 3 3 2 2 1 1 2 2 3 3 3 6 7 7
13 10 10 13 10 8 9 10 11 9 10 12 11 10 10 9 10 10 10 12 10 13 8 6 5 6 4 4 3 4 4 3 2 2 3 3 3 3 3 4 4 4 5 6
12 15 10 11 11 10 10 13 11 11 11 11 11 9 9 9 11 12 14 9 8 7 6 6 5 5 4 4 4 3 3 2 3 2 2 3 3 3 3 4 5 5 5 6
Wind_Direction
265 277 220 229 215 204 216 226 214 225 236 255 268 188 216 218 215 190 182 182 188 187 188 186 183 180 181 179 175 174 176 182 195 192 186 181 207 229 247 256 258 263 267 262
257 273 286 271 242 219 212 231 246 267 265 265 286 308 284 218 203 219 208 192 192 192 194 194 190 186 180 180 179 172 178 191 186 180 174 191 207 224 241 256 264 262 266 258
260 264 271 268 237 234 226 221 204 234 241 247 272 261 240 234 223 212 215 206 195 196 198 201 193 184 185 184 166 171 180 188 183 171 180 191 199 211 231 243 246 261 268 277
255 297 244 253 108 222 223 225 218 239 240 244 226 248 245 232 215 224 212 205 209 199 198 201 192 184 173 169 173 175 183 184 177 173 180 183 191 212 224 228 245 253 264 268
197 216 274 284 252 193 186 246 230 241 243 254 247 289 269 254 238 225 228 217 211 201 199 192 195 187 175 177 171 174 186 186 179 169 175 179 195 208 212 216 248 257 264 288
197 210 227 172 225 230 152 265 218 223 232 241 229 235 264 244 250 270 245 233 219 211 190 182 198 172 174 182 177 189 186 184 170 169 171 180 188 198 203 196 224 250 275 265
225 244 260 231 127 66 135 234 248 263 227 222 216 222 216 190 208 181 331 345 234 197 203 196 175 166 184 182 194 186 160 158 163 164 167 172 178 172 185 216 230 270 274 269
224 229 257 172 203 207 188 104 34 2 358 329 288 277 199 216 254 249 271 278 271 258 219 195 172 173 184 192 178 156 153 157 156 160 164 160 163 185 198 193 227 253 262 281
187 229 284 292 220 221 246 264 252 169 292 275 271 264 261 255 279 261 239 250 243 241 218 194 171 164 173 187 155 145 147 148 153 161 165 162 168 184 186 200 214 246 252 266
215 232 245 252 251 228 221 244 268 258 246 208 242 256 245 242 241 248 226 237 226 221 210 190 175 171 167 153 135 137 139 149 159 157 163 170 169 166 167 199 230 241 247 267
232 235 269 271 267 248 241 248 276 278 248 231 210 245 261 266 246 231 218 210 203 210 197 186 169 180 158 136 133 138 145 157 158 155 157 167 167 169 188 205 182 203 228 215
251 256 232 239 232 259 253 245 244 252 273 231 218 225 233 252 251 230 217 193 198 205 185 175 160 142 131 134 137 144 149 151 155 153 160 142 142 221 231 188 165 177 207 203
284 296 309 312 299 271 251 251 249 246 230 239 227 211 217 226 234 230 206 191 199 203 180 163 161 155 156 153 154 155 147 150 141 135 133 143 170 187 210 298 208 214 220 218
273 283 281 280 276 283 283 279 276 263 254 229 226 218 213 218 228 222 214 213 191 175 165 159 158 163 156 149 142 132 121 127 134 141 151 163 176 190 187 194 213 243 226 215
275 267 266 278 289 284 287 287 268 268 264 272 252 228 213 229 222 226 221 193 171 163 160 162 154 158 145 138 139 146 139 139 142 149 159 163 164 174 188 215 224 239 227 210
250 264 275 278 277 270 266 264 267 256 256 254 251 228 227 229 225 221 201 169 159 192 175 156 153 156 144 139 141 138 137 131 128 146 158 162 179 196 201 213 220 229 232 234
249 255 254 251 252 256 256 263 267 258 255 247 254 233 216 217 222 210 202 192 180 164 164 159 153 141 144 144 135 133 137 143 157 160 168 174 180 195 201 202 210 224 228 218
237 244 251 249 255 256 256 251 255 258 252 248 244 234 231 195 204 211 193 148 127 128 149 144 140 137 139 146 146 145 142 145 147 157 156 150 182 203 195 209 232 242 262 272
237 239 247 254 252 253 251 255 258 252 250 253 247 245 234 208 199 179 151 149 154 151 168 131 138 135 135 132 122 118 122 124 128 151 167 174 174 190 212 223 229 239 244 246
250 243 242 249 248 245 246 243 242 243 251 257 236 229 216 190 174 159 160 169 165 148 132 134 129 128 126 130 122 122 128 137 147 170 186 177 171 204 229 232 229 234 244 247
249 250 243 247 247 243 242 248 254 254 252 240 228 204 183 154 127 134 129 113 85 116 122 122 120 121 119 123 122 124 131 143 160 167 196 203 169 186 228 251 257 249 247 242
321 321 315 309 283 252 240 241 243 243 239 227 190 139 125 116 109 83 84 123 122 113 109 107 109 115 121 119 112 107 128 165 133 135 183 186 168 244 256 252 260 262 258 260
307 302 291 283 273 267 263 245 209 132 99 87 99 110 107 103 113 123 115 103 105 101 99 98 114 114 113 105 104 114 128 104 154 185 153 221 190 260 280 290 289 285 286 283
289 277 271 268 218 106 85 68 89 85 86 80 83 94 110 109 85 89 104 102 102 101 100 100 99 93 87 85 89 101 102 90 66 36 5 359 7 316 287 270 278 302 295 289
337 27 20 49 73 77 86 84 81 76 82 79 71 69 77 70 101 111 101 104 103 94 85 87 90 93 84 87 101 96 84 72 73 67 353 348 11 336 305 312 310 305 299 302
47 49 47 50 55 63 72 77 79 73 78 80 73 72 78 83 91 89 88 87 81 91 85 87 84 74 76 82 76 69 67 66 62 45 27 18 352 342 349 353 345 320 308 309
46 46 52 55 49 55 62 64 70 71 67 68 73 65 71 77 84 86 85 84 82 81 80 75 70 73 70 61 58 61 51 39 30 28 17 23 26 358 330 304 285 280 283 295